2001 CA21
ephemeris date magn radius delta ra dec elong phase
Today6 Feb 202622.81.865 AU2.126 AU01h07m+06°38'61.3°27.6°
2001 CA21 - 2026-02-06
astro.vanbuitenen.nl


 
-1 year
-1 month
-1 day
Now
+1 day
+1 month
+1 year

The interactive orbit chart above shows the body's path through the solar system and its position at the given date. Green and blue lines are shown perpendicular to the ecliptic plane: Green if the path is above the ecliptic plane, blue if it is below. (Left-click and drag to rotate the view; Right-click and drag to move the view; Use scroll wheel to zoom in our out.)

The orbital elements of 2001 CA21 are:

            e (Eccentricity)                : 0.8289717
            a (Semimajor axis)              : 2.1131443
            i (Inclination)                 : 5.25828
            Ω (Longitude of ascending node) : 51.79975
            ω (Argument of perihelion)      : 212.75474
            M (Mean anomaly)                : 343.17872
            Epoch                           : 2001 Jan 31

            L (Longitude of perihelion)     : 84.44464
            B (Latitude of perihelion)      : -2.84213
            P (Orbital period in years)     : 3.07            
        

The light curve chart below shows the estimated development of the minor planet's magnitude.


The all-sky chart below shows the path of the minor planet over the same period as the light curve. The current position is marked yellow.





The following chart shows the path of the minor planet in the next few days. The field of view is optimized for (~10x50) binoculars and finderscopes.




Ephemerides:
Date       Time       RA (2000)    DEC (2000)    delta   radius  elong  phase   PA    magn
2026-02-06 00:00 UT   01 07 31.9   +06 38 54     2.126    1.865   61.3   27.6    68   22.8 
2026-02-06 01:43 UT   01 07 40.4   +06 39 52     2.128    1.866   61.2   27.6    68   22.8 
2026-02-07 00:00 UT   01 09 29.8   +06 52 14     2.148    1.876   60.8   27.3    68   22.8 
2026-02-08 00:00 UT   01 11 26.7   +07 05 25     2.170    1.887   60.3   27.0    68   22.9 
2026-02-09 00:00 UT   01 13 22.7   +07 18 26     2.191    1.898   59.8   26.7    68   22.9 
2026-02-10 00:00 UT   01 15 17.9   +07 31 18     2.213    1.909   59.3   26.4    68   22.9 
2026-02-11 00:00 UT   01 17 12.4   +07 44 01     2.234    1.919   58.8   26.1    68   22.9 
2026-02-12 00:00 UT   01 19 06.0   +07 56 36     2.256    1.930   58.3   25.8    68   23.0 
2026-02-13 00:00 UT   01 20 58.9   +08 09 02     2.277    1.941   57.8   25.5    68   23.0 
2026-02-14 00:00 UT   01 22 51.1   +08 21 19     2.298    1.951   57.3   25.2    68   23.0 
2026-02-15 00:00 UT   01 24 42.5   +08 33 29     2.320    1.962   56.8   24.9    68   23.0 
2026-02-16 00:00 UT   01 26 33.3   +08 45 30     2.341    1.972   56.3   24.6    69   23.1 
2026-02-17 00:00 UT   01 28 23.5   +08 57 24     2.362    1.983   55.8   24.3    69   23.1 
2026-02-18 00:00 UT   01 30 13.0   +09 09 10     2.383    1.993   55.3   24.1    69   23.1 
2026-02-19 00:00 UT   01 32 01.9   +09 20 48     2.404    2.004   54.8   23.8    69   23.1 
2026-02-20 00:00 UT   01 33 50.2   +09 32 19     2.425    2.014   54.2   23.5    69   23.2 
2026-02-21 00:00 UT   01 35 37.9   +09 43 43     2.446    2.024   53.7   23.2    69   23.2 
2026-02-22 00:00 UT   01 37 25.1   +09 54 60     2.467    2.034   53.2   22.9    69   23.2 


    Terminology:
            
    delta:  distance between minor planet and earth in AU
    radius: distance between minor planet and sun in AU
    magn:   magnitude (brightness) estimate    
    ra:     right ascension in hours (24h = 360deg)
    dec:    declination in degrees
    elong:  elongation in degrees (angle sun-earth-minor planet)    
    phase:  phase angle in degrees (angle sun-minor planet-earth)        
    AU:     Astronomical Unit (mean distance between earth and sun: 149597870.7 km
    

Orbital elements provided by the MPC (Minor Planet Center).
Calculations by a modified version of AAPlus, a C# implementation of the AA+ project by PJ Naughter from the algorithms presented in the book "Astronomical Algorithms" by Jean Meeus.
NGC2000 dso catalog and star labels from VizieR as provided by the Strasbourg astronomical Data Center.
Tycho2 catalog from the ESO archive.